Starlink 5850

operational
NORAD ID: 57049 Int'l Des: 2023-088 Owner: SPXS Country: US Constellation: starlink
LEOCIRCULAR

About Starlink 5850

Description loading...

Live Position

Loading 3D Globe...

Upcoming Passes

Altitude History

Altitude vs Time

uPlot chart will show altitude changes over time

Two-Line Element Set

1 57049U 23088B 25260.24062545 -.00000433 00000-0 -16975-4 0 9993
2 57049 43.0066 330.3679 0001884 267.6945 92.3682 15.02532868124464
Epoch: Sep 17, 2025 • Age: 16 hours

Current Status

Altitude 565.4 km
Velocity 7.58 km/s
Sub-Earth Point -27.91°S, 27.74°W
Launch Date Jun 22, 2023
Age 2.2 years
Type internet

Technical Details

Classification Payload
Mass 305.00 kg
Dry Mass 290.00 kg
Total Mass 305.00 kg
Length 0.20 m
Diameter 2.80 m
Span 9.00 m
Shape Box + pan
Manufacturer SPXS
Bus Type Starlink
Phase Status In Orbit
Owner/State SPXS/US

Large Constellations

Loading constellations...